STARLINK-38185, 100202

Orbit data source: Space-Track

STARLINK-38185, 100202 is a payload satellite owned by SpaceX/Seattle (US) in SSO that was launched on Sat, 01 Aug 2026 UTC launched from the Air Force Western Test Range (AFWTR). Payload-class satellites include a variety of spacecraft equipped with specific instruments for various scientific and technological missions. These include communications satellites like Starlink; space stations such as the ISS; scientific satellites like the Hubble; Earth observation satellites from companies like Planet Labs, Umbra, and HawkEye 360; GPS; miniature CubeSats for education and research; and military/defense satellites.

Loading next visibility...
Identifier
100202, 2026-175Z
Orbit
SSO
Country
Flag of USUS
Related business
Manufacturer
SpaceX/Seattle
Mission
Operational spacecraft
Bus & Motor
STARLINK V2MO, Unknown motor
Mass
575 kg wet, ~530 kg dry
Launch date (UTC)
2026-08-01 (2 months ago)
Launch vehicle
Unknown
Launch site
Air Force Western Test Range (AFWTR)
Object type
Payload
Rocket body
Debris
Shape & HBR
BOX + PAN, 17.7 m
Radar Cross Section
RCS unknown

Expand to show TLE details & history
Last TLE update: 8 hours ago

TLE from 8 hours ago
0 STARLINK-38185
1 A0202U 26175Z   26263.87307565  .00137168  00000-0  90439-3 0  9999
2 A0202  97.2836 106.3079 0001260  79.2419 280.8988 15.75226400  9237
Epoch: 2026-09-20T20:57Z
TLE epoch observation values (Epoch: 2026-09-20T20:57:13.736Z)
Latitude
-0.00001°
Longitude
152.23965°
Altitude
346.995 km
Speed
7.701 km/s
True Right ascension
07h 05m 13s
True Declination
0° 00' 00"
Sunlit
Object was in daylight at epoch
Visualization orbit readout
Latitude
Unknown
Longitude
Unknown
Altitude
Unknown
Speed
Unknown
Apparent Right ascension
Unknown
Apparent Declination
Unknown
Sunlit
N/A
Visualization observer readout
Local Sidereal Time
22:05:45
Azimuth
Unknown
Elevation
Unknown
Doppler factor
Unknown
Orbital elements
Apogee altitude
341.721 km
Perigee altitude
340.028 km
Semi-major axis
6,719.011 km
Eccentricity
0.00013
Inclination
97.2836°
RAAN
106.3079°
Arg. of periapsis
79.2419°
True anomaly
280.88462°
Mean anomaly
280.8988°
Eccentric anomaly
280.89171°
Mean motion
3.94081 °/min
Orbital period
91.35 mins
BSTAR
0.00090439
Loading maneuver chart data...
Computing Atmospheric mass density...
Loading historical data...
Loading historical data...
Loading historical data...
Loading historical data...
Loading historical data...
Loading historical data...
Loading historical data...

Documentation

Showing up to 5 results
|